English version Home page |
Updated on October 21, 2017 |
プロフィール
|
軌道要素Epoch 2009 June 18.0 TT = JDT 2455000.5 T 2009 June 25.77319 TT MPCW q 2.6693016 (2000.0) P Q n 0.11674286 Peri. 225.95087 +0.88883400 -0.45493781 a 4.1461897 Node 160.90330 +0.45354410 +0.85636128 e 0.3562037 Incl. 9.64684 +0.06535952 +0.24428864 P 8.44 From 25 observations 2009 Nov. 9-2017 Aug. 3, mean residual 0".4.
|
光度変化m1 = 12.5 + 5 logΔ + 10.0 log r
|
軌道要素はM.P.E.C. 2017-P09に掲載されたものです。
|